Location: Albany
(35.0000°S, 118.0000°E)
Time: 20:14:25
(UTC-04:00)

ERS-1 Rocket - Visible Passes

Search period start: 17 April 2014 00:00
Search period end: 27 April 2014 00:00
Orbit: 755 x 761 km, 98.7° (Epoch: 16 April)

Date Brightness Start Highest point End Pass type
(mag) Time Alt. Az. Time Alt. Az. Time Alt. Az.
17 Apr 3.4 06:52:41 10° SSE 06:57:25 38° E 07:02:05 10° NNE visible
17 Apr 5.2 08:32:04 10° SSW 08:35:55 22° WSW 08:39:44 10° WNW visible
17 Apr 4.7 18:02:50 10° NE 18:07:27 37° ESE 18:12:07 10° S visible
18 Apr 4.5 06:15:22 10° ESE 06:18:13 15° E 06:21:03 10° NE visible
18 Apr 3.7 07:52:19 10° S 07:57:17 53° WSW 08:02:11 10° NNW visible
18 Apr 5.8 17:25:55 10° E 17:28:54 16° ESE 17:31:54 10° SSE visible
19 Apr 2.9 07:13:21 10° SSE 07:18:25 62° ENE 07:23:25 10° N visible
19 Apr 5.8 08:54:04 10° SSW 08:56:37 14° WSW 08:59:09 10° W visible
20 Apr 4.0 06:35:12 10° SE 06:39:20 24° E 06:43:25 10° NNE visible
20 Apr 4.6 08:13:35 10° S 08:18:06 33° WSW 08:22:35 10° NW visible
20 Apr 5.3 17:45:34 10° ENE 17:49:37 25° ESE 17:53:42 10° SSE visible
21 Apr 3.0 07:34:14 10° S 07:39:21 81° WSW 07:44:25 10° NNW visible
21 Apr 6.2 17:10:34 10° ESE 17:11:10 10° ESE 17:11:47 10° SE visible
22 Apr 3.4 06:55:36 10° SSE 07:00:23 40° E 07:05:06 10° NNE visible
22 Apr 5.3 08:35:07 10° SSW 08:38:51 21° WSW 08:42:35 10° WNW visible
22 Apr 4.5 18:05:44 10° NE 18:10:24 39° ESE 18:15:07 10° S visible
23 Apr 4.5 06:18:09 10° ESE 06:21:12 16° E 06:24:13 10° NE visible
23 Apr 3.8 07:55:18 10° S 08:00:14 50° WSW 08:05:06 10° NNW visible
23 Apr 5.7 17:28:41 10° ENE 17:31:49 17° ESE 17:34:59 10° SSE visible
24 Apr 2.9 07:17:42 19° SSE 07:21:22 66° ENE 07:26:23 10° N visible
24 Apr 5.8 08:57:51 11° SW 08:59:33 13° WSW 09:01:52 10° W visible
25 Apr 3.9 06:39:25 16° SE 06:42:18 26° E 06:46:28 10° NNE visible
25 Apr 4.6 08:19:31 26° SW 08:21:02 31° WSW 08:25:27 10° NW visible
25 Apr 5.2 17:48:24 10° ENE 17:52:32 26° ESE 17:56:43 10° SSE visible
26 Apr 3.0 07:40:48 47° S 07:42:18 77° WSW 07:47:20 10° NNW visible
26 Apr 6.1 17:12:51 10° ESE 17:14:05 11° ESE 17:15:19 10° SE visible
